Regional Weather Roundup
Issued by NWS

Current Version | Previous Version | Text Only | Print | Product List | Glossary On
Versions: 1 2 3 4 5 6 7 8 9 10 11 12 13 14 15 16 17 18 19 20 21 22 23 24 25 26 27
000
ASUS42 KTBW 301211
RWRFL
FLORIDA REGIONAL WEATHER ROUNDUP
NATIONAL WEATHER SERVICE TAMPA BAY RUSKIN FL
800 AM EDT FRI SEP 30 2022

NOTE: "FAIR" INDICATES FEW OR NO CLOUDS BELOW 12,000 FEET WITH NO
SIGNIFICANT WEATHER AND/OR OBSTRUCTIONS TO VISIBILITY.

FLZ001>010-012>015-112-114-115-301300-
PANHANDLE FLORIDA

CITY           SKY/WX    TMP DP  RH WIND       PRES   REMARKS
PENSACOLA      PTCLDY    60  49  66 N8        29.96R
PENSACOLA NAS  MOCLDY    59  48  67 N6        29.96R
MILTON NAS     PTCLDY    54  47  77 N8        29.97
CRESTVIEW      CLOUDY    59  49  69 N6        29.97R
DUKE FIELD     CLOUDY    56  48  74 N6        29.95R
VALPARAISO     CLOUDY    58  48  69 N8        29.92R
MARY ESTHER    PTCLDY    56  47  74 N9        29.94R
PANAMA CITY    FAIR      57  50  77 NW8       29.92R
TYNDALL AFB    CLEAR     62  50  65 N7        29.91R
APALACHICOLA   CLEAR     59  52  77 N5        29.90R

STATION/POSITION SKY/WX   TEMP    WIND        PRES    WAVE   SWELL
                          AIR SEA DIR/SP/G            HT/PER HT/PER
                          (F)     (DEG/KT/KT) (MB)    (FT/S) (FT/S)
30.1N   87.6W              68 82   30/ 12/ 16 1014.2R   4/ 6   2/ 6
29.2N   88.2W              75 82   60/ 12/ 16 1013.7R   6/ 7   5/ 7
28.8N   86.0W              71      30/ 10/ 14 1013.2R   4/ 6   3/ 6
PANAMA CITY BEAC           60 80  360/  8/ 10 1013.7R
TOWER C                    66                 1012.2R
28.5N   84.5W              72 81  360/ 10/ 14 1010.1R   5/ 7   3/ 7

$$
FLZ011-016>038-118-127-128-134-139-239-301300-
NORTH FLORIDA

CITY           SKY/WX    TMP DP  RH WIND       PRES   REMARKS
MARIANNA       CLEAR     58  49  72 N3        29.91R
TALLAHASSEE    CLEAR     60  49  66 N6        29.89R
LIVE OAK         N/A     63  52  67 NW7       29.83R
CROSS CITY     CLEAR     58  53  83 NW7       29.84R
LAKE CITY      CLOUDY    63  52  67 NW8       29.81R
GAINESVILLE    CLOUDY    64  54  69 NW6       29.83R
WILLISTON      CLOUDY    62  55  77 NW6       29.82R
PALATKA        CLOUDY    61  54  77 NW7G13    29.78R
MAYPORT NAS    CLOUDY    67  58  72 NW16G23   29.73R
JACKSONVILLE   CLOUDY    65  55  70 NW12G23   29.74R
JAX NAS        CLOUDY    66  55  67 NW17      29.76R
JAX CECIL      CLOUDY    64  59  82 NW13G20   29.77R
FERNANDINA BEA CLOUDY    64  57  77 NW17G23   29.73R
PALM COAST     CLOUDY    64  57  80 W8        29.76R

STATION/POSITION SKY/WX   TEMP    WIND        PRES    WAVE   SWELL
                          AIR SEA DIR/SP/G            HT/PER HT/PER
                          (F)     (DEG/KT/KT) (MB)    (FT/S) (FT/S)
SHELL POINT      NOT AVBL
KEATON BEACH               60     340/  3/  6 1010.9R
CEDAR KEY                  63     330/  7/ 10 1010.3R
FERNANDINA                 66 69  310/ 10/ 18 1006.6S
30.7N   81.3W              66 76                N/A     9/ 9   5/12
MAYPORT                    65 72  300/ 15/ 19 1007.0R
31.4N   80.9W              66 77  330/ 33/ 41 1001.0F  10/ 9   5/ 9
ST AUGUSTINE               65 74  320/ 10/ 14 1007.5R

$$
FLZ040-043>046-052-053-057-058-063-144-301300-
INTERIOR CENTRAL FLORIDA

CITY           SKY/WX    TMP DP  RH WIND       PRES   REMARKS
OCALA          CLOUDY    63  55  75 W5        29.82R
LEESBURG       MOCLDY    64  58  80 W7        29.81R
SANFORD        CLOUDY    64  57  78 W12       29.79R
ORLANDO EXEC   CLOUDY    65  57  75 NW10      29.80R
ORLANDO INTL   CLOUDY    64  58  80 W9        29.80R
KISSIMMEE      CLOUDY    64  58  80 NW9       29.81R
WINTER HAVEN     N/A    N/A N/A N/A MISG      29.82R
LAKELAND INTL  CLEAR     63  55  77 N9        29.82
OKEECHOBEE     CLEAR     63  63 100 W6        29.79R

$$
FLZ041-047-054-059-064-141-147-301300-
EAST CENTRAL FLORIDA

CITY           SKY/WX    TMP DP  RH WIND       PRES   REMARKS
DAYTONA BEACH  CLOUDY    65  58  78 W10       29.76R
JFK SPACE CTR  CLOUDY    64  54  69 NW10      29.75R
TITUSVILLE     CLOUDY    68  61  77 NW9       29.79R
CAPE CANAVERAL CLOUDY    65  59  81 W15       29.75R
PATRICK AFB    CLEAR     65  65  99 NW16      29.75R
MELBOURNE      CLEAR     63  60  90 W9        29.77R
VERO BEACH     CLEAR     64  60  87 W8        29.79R
FT PIERCE      CLEAR     64  61  90 W5        29.79R
STUART         PTCLDY    64  59  82 W9        29.81R

STATION/POSITION SKY/WX   TEMP    WIND        PRES    WAVE   SWELL
                          AIR SEA DIR/SP/G            HT/PER HT/PER
                          (F)     (DEG/KT/KT) (MB)    (FT/S) (FT/S)
28.5N   80.2W              69 81  290/ 19/ 25 1006.3R  11/14   7/14
28.9N   78.5W              77 84  250/ 23/ 29 1005.4R  13/ 8   7/12
TRIDENT PIER                      290/ 15/ 19   N/A
28.4N   80.5W                 80                N/A     4/15   3/15
27.6N   80.2W                 81                N/A     5/13   3/13

$$
FLZ050-056-061-142-242-148-248-149-249-151-251-155-255-
160-260-301300-
WEST CENTRAL FLORIDA

CITY           SKY/WX    TMP DP  RH WIND       PRES   REMARKS
CRYSTAL RIVER  FAIR      61  55  82 W6        29.84R
INVERNESS      CLOUDY    61  55  82 CALM      29.83R
BROOKSVILLE    CLEAR     62  57  83 NW6       29.84R
CLEARWATER AIR FAIR      64  55  72 N6        29.83S
ST PETE CLEARW CLEAR     65  60  84 N9        29.83R
TAMPA INTL       N/A    N/A N/A N/A MISG      29.83R
TAMPA EXEC     PTCLDY    64  59  82 MISG      29.84R
PLANT CITY     PTCLDY    66  59  77 N6        29.84R
MACDILL AFB    CLEAR     65  57  74 N12       29.79R
ST PETERSBURG  CLEAR     67  61  81 N12       29.81R
SARASOTA       CLEAR     66  59  78 N9        29.81R
VENICE         NOT AVBL

STATION/POSITION SKY/WX   TEMP    WIND        PRES    WAVE   SWELL
                          AIR SEA DIR/SP/G            HT/PER HT/PER
                          (F)     (DEG/KT/KT) (MB)    (FT/S) (FT/S)
27.3N   84.3W                 81                N/A     5/ 7
CLEARWATER BEACH           68 72  360/ 15/ 17 1010.2R
MIDDLE TAMPA BAY           67     360/ 14/ 18   N/A
VENICE                     67 80   10/  9/ 11 1009.2R

$$
FLZ066-069-070-075>078-162-262-165-265-301300-
SOUTHWEST FLORIDA AND KEYS

CITY           SKY/WX    TMP DP  RH WIND       PRES   REMARKS
FT MYERS       NOT AVBL
NAPLES           N/A    N/A N/A N/A MISG      29.81R
MARATHON       PTCLDY    73  66  78 N12G21    29.79R
KEY WEST NAS   CLEAR     80  69  69 N15       29.79R
KEY WEST INTL  CLEAR     76  70  82 N12       29.80R

STATION/POSITION SKY/WX   TEMP    WIND        PRES    WAVE   SWELL
                          AIR SEA DIR/SP/G            HT/PER HT/PER
                          (F)     (DEG/KT/KT) (MB)    (FT/S) (FT/S)
NAPLES           NOT AVBL
DRY TORTUGAS     NOT AVBL
SOMBRERO KEY               74     340/ 16/ 19 1007.6R
LONG KEY                   72     360/ 14/ 17 1008.1R

$$
FLZ067-068-071>074-168-172>174-301300-
SOUTHEAST FLORIDA

CITY           SKY/WX    TMP DP  RH WIND       PRES   REMARKS
W PALM BEACH   CLEAR     67  62  84 NW7       29.79R
BOCA RATON     CLEAR     68  63  83 NW7       29.79R
FT LAUDER-EXEC CLEAR     69  64  84 NW9       29.78R
FT LAUDERDALE  PTCLDY    69  62  78 NW8       29.78R
POMPANO BEACH  CLEAR     68  62  81 NW12      29.78R
PEMBROKE PINES CLEAR     68  62  81 NW9       29.80R
OPA LOCKA      CLEAR     68  62  81 NW10      29.79R
MIAMI          PTCLDY    70  64  81 VRB5      29.79R
WEST KENDALL   CLEAR     69  63  81 N9        29.79R
HOMESTEAD      CLEAR     68  64  89 NW7       29.77R

STATION/POSITION SKY/WX   TEMP    WIND        PRES    WAVE   SWELL
                          AIR SEA DIR/SP/G            HT/PER HT/PER
                          (F)     (DEG/KT/KT) (MB)    (FT/S) (FT/S)
VIRGINIA KEY               82 80  320/  4/  7 1008.8R
LAKE WORTH                 67 77  310/  7/  9 1007.9R
SETTLEMENT POINT           76     310/ 13/ 14 1007.7R

$$




USA.gov is the U.S. government's official web portal to all federal, state and local government web resources and services.